Location: Clatteringshaws Loch
(55.0508°N, 4.2860°W)
Time: 19:56:39
(UTC+01:00)

Amateur Radio Satellites - All Passes

Search period start: 30 August 2016 19:26
Search period end: 31 August 2016 19:26
Location: Clatteringshaws Loch, 55.0508°N, 4.2860°W

Satellite Date Start Highest point End Downlink Frequencies (MHz)
Time Altitude Azimuth
GONETS M04 30 Aug 19:28:44 19:31:58 12° 21° (NNE) 19:35:13
AIST 2 30 Aug 19:29:26 19:33:35 59° 37° (NE) 19:37:44 435.215
CUBEBUG 2 30 Aug 19:31:38 19:35:12 23° 58° (ENE) 19:38:41 437.445
CUTE 1.7 + AOD 2 30 Aug 19:32:00 19:35:57 41° 66° (ENE) 19:39:55 437.475
ZACube-1 30 Aug 19:32:21 19:34:11 12° 51° (NE) 19:36:00 437.345
COMPASS 1 30 Aug 19:32:47 19:36:10 25° 60° (ENE) 19:39:34 437.405
CINEMA 3 30 Aug 19:32:55 19:37:49 58° 69° (ENE) 19:42:36 145.822/145.860
KKS-1 30 Aug 19:40:00 19:42:15 14° 311° (NW) 19:44:30 437.445
HO-68 30 Aug 19:41:32 19:48:42 75° 66° (ENE) 19:55:54 435.675
CUBESAT XI-V 30 Aug 19:58:12 20:02:20 32° 299° (WNW) 20:06:30 437.345
O/OREOS (USA 219) 30 Aug 20:06:17 20:07:49 11° 16° (NNE) 20:09:21 437.305
STARS 30 Aug 20:07:25 20:09:37 14° 311° (NW) 20:11:50 437.465
BRITE-PL 30 Aug 20:07:37 20:09:28 12° 282° (WNW) 20:11:22 437.365/2234.400
Cosmos 2499 30 Aug 20:24:30 20:26:01 11° 31° (NNE) 20:27:32 435.465 / 435.565
Oscar 11 30 Aug 20:30:53 20:34:43 32° 63° (ENE) 20:38:34 145.826/435.025
NOAA 18 30 Aug 20:31:17 20:34:23 15° 276° (W) 20:37:29 137.9125
AIST 1 30 Aug 20:33:09 20:37:36 86° 256° (WSW) 20:42:00
SEEDS 30 Aug 20:34:00 20:38:10 75° 257° (WSW) 20:42:22 437.485
DELFI C3 30 Aug 20:34:55 20:37:33 17° 57° (ENE) 20:40:13 145.870
FUNcube-1 30 Aug 20:42:26 20:46:28 38° 65° (ENE) 20:50:27 145.935
PCSat 30 Aug 20:44:52 20:50:11 56° 237° (WSW) 20:55:28 145.827
DOVE 4 30 Aug 20:54:39 20:57:58 17° 276° (W) 21:01:20 437.250
STRAND 1 30 Aug 20:54:58 21:00:06 76° 104° (ESE) 21:05:13 437.568
Cosmos 2491 30 Aug 20:55:49 21:03:34 34° 304° (NW) 21:11:25 435.465 / 435.565
AAUSAT CUBESAT 2 30 Aug 20:56:03 21:00:10 77° 257° (WSW) 21:04:20 437.432
UWE-3 30 Aug 20:57:51 21:02:20 76° 73° (ENE) 21:06:44 435.000/436.395/437.385
CANX-2 30 Aug 21:02:48 21:06:28 29° 266° (W) 21:10:11 2200.000
AUBIESAT-1 30 Aug 21:03:44 21:06:10 14° 42° (NE) 21:08:34 437.475
ZACube-1 30 Aug 21:05:22 21:09:43 62° 71° (ENE) 21:13:59 437.345
CUBEBUG 2 30 Aug 21:06:53 21:11:29 67° 257° (WSW) 21:15:58 437.445
COMPASS 1 30 Aug 21:07:30 21:11:31 50° 260° (W) 21:15:34 437.405
YUBILEINY 30 Aug 21:08:05 21:09:22 10° 301° (WNW) 21:10:40 435.215
AIST 2 30 Aug 21:08:13 21:11:53 30° 238° (WSW) 21:15:33 435.215
CUTE 1.7 + AOD 2 30 Aug 21:08:16 21:11:56 29° 266° (W) 21:15:38 437.475
CINEMA 3 30 Aug 21:11:01 21:15:15 27° 268° (W) 21:19:25 145.822/145.860
M-CUBED/EXP-1 PRIME 30 Aug 21:11:18 21:14:28 18° 46° (NE) 21:17:35 437.505
Cosmos 2504 30 Aug 21:16:05 21:20:15 16° 289° (WNW) 21:24:24 435.465 / 435.565
HUMSAT D 30 Aug 21:24:50 21:28:19 27° 62° (ENE) 21:31:46 437.325/437.525
GONETS M04 30 Aug 21:25:16 21:32:50 30° 52° (NE) 21:40:20
PRISM 30 Aug 21:27:25 21:30:53 24° 93° (E) 21:34:20 437.425
HO-68 30 Aug 21:30:49 21:37:06 31° 268° (W) 21:43:24 435.675
O/OREOS (USA 219) 30 Aug 21:44:53 21:48:50 27° 41° (NE) 21:52:46 437.305
CUBEBUG 1 30 Aug 21:58:20 22:00:10 12° 48° (NE) 22:02:00 437.445
VELOX 1 30 Aug 22:04:43 22:06:34 12° 48° (NE) 22:08:24 145.980
Oscar 11 30 Aug 22:06:46 22:10:49 39° 263° (W) 22:14:53 145.826/435.025
DELFI C3 30 Aug 22:08:02 22:11:58 74° 258° (WSW) 22:15:57 145.870
DX 1 30 Aug 22:12:03 22:13:01 11° 46° (NE) 22:14:00 434.975-435.025
AIST 1 30 Aug 22:12:21 22:14:29 13° 280° (W) 22:16:38
SEEDS 30 Aug 22:13:22 22:14:39 11° 276° (W) 22:15:56 437.485
Cosmos 2499 30 Aug 22:15:35 22:21:58 34° 60° (ENE) 22:28:19 435.465 / 435.565
ANTELSAT 30 Aug 22:16:23 22:17:47 11° 84° (E) 22:19:09 437.575/2403.000
FUNcube-1 30 Aug 22:18:49 22:22:47 33° 264° (W) 22:26:42 145.935
PCSat 30 Aug 22:30:26 22:32:28 12° 258° (WSW) 22:34:31 145.827
STRAND 1 30 Aug 22:34:48 22:38:51 24° 306° (NW) 22:42:54 437.568
AAUSAT CUBESAT 2 30 Aug 22:35:03 22:36:25 11° 276° (W) 22:37:46 437.432
AUBIESAT-1 30 Aug 22:35:18 22:39:50 56° 62° (ENE) 22:44:16 437.475
UWE-3 30 Aug 22:36:18 22:39:19 18° 272° (W) 22:42:18 435.000/436.395/437.385
ZACube-1 30 Aug 22:43:05 22:46:23 21° 270° (W) 22:49:40 437.345
M-CUBED/EXP-1 PRIME 30 Aug 22:43:39 22:48:22 75° 66° (ENE) 22:52:59 437.505
UKube-1 30 Aug 22:44:30 22:46:59 15° 51° (NE) 22:49:27 .
TIGRISAT 30 Aug 22:45:04 22:48:12 19° 89° (E) 22:51:17 435.000
CUBEBUG 2 30 Aug 22:47:32 22:48:56 11° 277° (W) 22:50:20 437.445
AISAT 30 Aug 22:51:37 22:55:22 27° 59° (ENE) 22:59:07 437.250
ESTCUBE 1 30 Aug 22:56:12 23:00:26 42° 65° (ENE) 23:04:42 437.505/2401.250
HUMSAT D 30 Aug 22:59:49 23:03:47 45° 261° (W) 23:07:45 437.325/437.525
Cosmos 2491 30 Aug 23:00:11 23:04:04 13° 335° (NNW) 23:07:59 435.465 / 435.565
PRISM 30 Aug 23:02:22 23:06:26 49° 293° (WNW) 23:10:29 437.425
UNISAT 6 30 Aug 23:14:17 23:18:17 35° 96° (E) 23:22:13 437.425
GONETS M04 30 Aug 23:22:07 23:31:05 86° 80° (E) 23:39:57
O/OREOS (USA 219) 30 Aug 23:24:05 23:28:41 69° 242° (WSW) 23:33:16 437.305
CUBEBUG 1 30 Aug 23:31:15 23:35:36 58° 69° (ENE) 23:39:59 437.445
SPROUT 30 Aug 23:34:05 23:37:53 31° 62° (ENE) 23:41:42 437.525
50 SAT 30 Aug 23:37:21 23:40:50 50° 70° (ENE) 23:44:21 437.505
VELOX 1 30 Aug 23:37:47 23:42:10 57° 68° (ENE) 23:46:34 145.980
DUCHIFAT 1 30 Aug 23:43:06 23:44:48 12° 85° (E) 23:46:30 145.980
TISAT 1 30 Aug 23:43:18 23:45:23 14° 51° (NE) 23:47:29 437.305
DX 1 30 Aug 23:44:02 23:48:15 48° 66° (ENE) 23:52:30 434.975-435.025
SO-50 30 Aug 23:44:41 23:49:02 34° 123° (ESE) 23:53:21 436.795
DELFI C3 30 Aug 23:47:03 23:47:34 10° 276° (W) 23:48:06 145.870
QB50P2 30 Aug 23:49:48 23:52:32 16° 88° (E) 23:55:15 145.880/145.840
JAS-2 30 Aug 23:50:17 23:54:45 18° 83° (E) 23:59:27 435.910
ANTELSAT 30 Aug 23:51:00 23:55:19 74° 103° (ESE) 23:59:35 437.575/2403.000
POLYITAN 1 30 Aug 23:52:18 23:55:02 17° 88° (E) 23:57:45 437.675
DANDE 30 Aug 23:53:44 23:55:38 16° 86° (E) 23:57:47 436.750
NANOSAT C BR1 30 Aug 23:57:42 00:00:33 17° 89° (E) 00:03:23 145.865
CUSAT 1 31 Aug 00:05:54 00:09:21 83° 103° (ESE) 00:13:57 437.405
Cosmos 2499 31 Aug 00:08:40 00:15:41 66° 265° (W) 00:22:42 435.465 / 435.565
AUBIESAT-1 31 Aug 00:10:34 00:14:31 27° 260° (W) 00:18:24 437.475
UKube-1 31 Aug 00:18:01 00:22:21 76° 72° (ENE) 00:26:43 .
M-CUBED/EXP-1 PRIME 31 Aug 00:19:45 00:23:18 21° 264° (W) 00:26:50 437.505
ITUPSAT 1 31 Aug 00:20:29 00:21:11 10° 42° (NE) 00:21:53 437.325
TIGRISAT 31 Aug 00:21:05 00:25:21 64° 290° (WNW) 00:29:33 435.000
BUGSAT 1 31 Aug 00:24:14 00:26:26 14° 86° (E) 00:28:37 437.445
AISAT 31 Aug 00:27:12 00:31:35 54° 259° (W) 00:36:02 437.250
ESTCUBE 1 31 Aug 00:33:20 00:37:22 32° 265° (W) 00:41:27 437.505/2401.250
RS-15 31 Aug 00:37:48 00:47:26 32° 104° (ESE) 00:57:24 29.354- 29.394
PRISM 31 Aug 00:40:14 00:40:50 10° 313° (NW) 00:41:27 437.425
QB50P1 31 Aug 00:43:00 00:47:05 44° 99° (E) 00:51:07 145.935-145.965
SWISSCUBE 31 Aug 00:48:53 00:51:54 17° 51° (NE) 00:54:56 437.505
UNISAT 6 31 Aug 00:51:06 00:55:02 35° 296° (WNW) 00:58:54 437.425
POPSAT HIP 1 31 Aug 00:53:19 00:57:30 54° 101° (E) 01:01:37 437.405
BEESAT 31 Aug 01:05:05 01:08:31 20° 53° (NE) 01:11:58 436.000
Cosmos 2491 31 Aug 01:05:24 01:06:28 10° 10° (N) 01:07:32 435.465 / 435.565
O/OREOS (USA 219) 31 Aug 01:05:27 01:07:14 12° 263° (W) 01:09:02 437.305
CUBEBUG 1 31 Aug 01:08:42 01:12:14 23° 269° (W) 01:15:48 437.445
SPROUT 31 Aug 01:09:39 01:13:45 42° 262° (W) 01:17:52 437.525
50 SAT 31 Aug 01:12:08 01:14:43 18° 269° (W) 01:17:19 437.505
VELOX 1 31 Aug 01:15:22 01:18:58 24° 268° (W) 01:22:35 145.980
TISAT 1 31 Aug 01:16:06 01:20:19 69° 72° (ENE) 01:24:34 437.305
DUCHIFAT 1 31 Aug 01:17:00 01:21:14 81° 103° (ESE) 01:25:26 145.980
GONETS M04 31 Aug 01:19:43 01:26:57 29° 283° (WNW) 01:34:09
DX 1 31 Aug 01:20:55 01:24:40 27° 266° (W) 01:28:26 434.975-435.025
SO-50 31 Aug 01:24:33 01:29:22 63° 323° (NW) 01:34:06 436.795
QB50P2 31 Aug 01:24:38 01:28:53 76° 288° (WNW) 01:33:05 145.880/145.840
Oscar 19 31 Aug 01:25:45 01:28:44 15° 84° (E) 01:31:41 437.125/150
POLYITAN 1 31 Aug 01:27:08 01:31:23 75° 288° (WNW) 01:35:34 437.675
ANTELSAT 31 Aug 01:28:31 01:31:36 19° 304° (NW) 01:34:39 437.575/2403.000
NANOSAT C BR1 31 Aug 01:32:34 01:36:47 71° 289° (WNW) 01:40:58 145.865
JAS-2 31 Aug 01:34:10 01:40:52 68° 103° (ESE) 01:48:20 435.910
DANDE 31 Aug 01:35:27 01:38:04 31° 295° (WNW) 01:41:13 436.750
CUSAT 1 31 Aug 01:49:59 01:52:25 16° 312° (NW) 01:55:13 437.405
ITUPSAT 1 31 Aug 01:53:26 01:57:54 41° 64° (ENE) 02:02:23 437.325
UKube-1 31 Aug 01:56:04 01:58:56 17° 271° (W) 02:01:50 .
BUGSAT 1 31 Aug 01:58:16 02:02:28 87° 287° (WNW) 02:06:34 437.445
KKS-1 31 Aug 01:58:31 01:59:12 10° 45° (NE) 01:59:53 437.445
TIGRISAT 31 Aug 01:59:22 02:01:16 13° 310° (NW) 02:03:08 435.000
Cosmos 2499 31 Aug 02:03:31 02:07:23 16° 288° (WNW) 02:11:14 435.465 / 435.565
QB50P1 31 Aug 02:19:05 02:22:45 28° 299° (WNW) 02:26:21 145.935-145.965
SWISSCUBE 31 Aug 02:24:16 02:29:01 78° 72° (ENE) 02:33:48 437.505
MOZHAYETS 4 31 Aug 02:25:59 02:29:06 18° 54° (NE) 02:32:13
POPSAT HIP 1 31 Aug 02:29:35 02:33:02 24° 301° (WNW) 02:36:26 437.405
BEESAT 31 Aug 02:41:01 02:45:47 85° 256° (WSW) 02:50:35 436.000
RS-15 31 Aug 02:46:28 02:58:13 81° 131° (SE) 03:10:33 29.354- 29.394
ITAMSAT 1 31 Aug 02:48:02 02:50:05 12° 82° (E) 02:52:06 435.822/435.867
TISAT 1 31 Aug 02:53:27 02:56:26 18° 270° (W) 02:59:25 437.305
DUCHIFAT 1 31 Aug 02:53:36 02:56:27 18° 305° (NW) 02:59:16 145.980
Cosmos 2491 31 Aug 03:01:32 03:08:02 22° 43° (NE) 03:14:32 435.465 / 435.565
QB50P2 31 Aug 03:01:44 03:04:01 14° 308° (NW) 03:06:17 145.880/145.840
Gurwin Techsat 1B 31 Aug 03:02:12 03:07:15 41° 97° (E) 03:12:16 435.225
AO-7 31 Aug 03:02:37 03:06:17 13° 78° (ENE) 03:09:56 29.400- 29.500
Oscar 19 31 Aug 03:03:42 03:08:58 77° 105° (ESE) 03:14:10 437.125/150
POLYITAN 1 31 Aug 03:04:16 03:06:30 14° 308° (NW) 03:08:44 437.675
SO-50 31 Aug 03:06:25 03:10:37 29° 346° (NNW) 03:14:45 436.795
NANOSAT C BR1 31 Aug 03:09:43 03:11:48 14° 309° (NW) 03:13:53 145.865
JAS-2 31 Aug 03:19:43 03:25:39 37° 302° (WNW) 03:32:13 435.910
KKS-1 31 Aug 03:30:29 03:34:45 45° 65° (ENE) 03:39:03 437.445
ITUPSAT 1 31 Aug 03:31:27 03:35:49 35° 264° (W) 03:40:14 437.325
BUGSAT 1 31 Aug 03:34:46 03:37:14 16° 307° (NW) 03:39:42 437.445
CUBESAT XI-V 31 Aug 03:55:05 03:58:24 20° 55° (NE) 04:01:46 437.345
STARS 31 Aug 03:56:54 04:01:05 43° 65° (ENE) 04:05:18 437.465
MOZHAYETS 4 31 Aug 04:01:08 04:05:42 88° 248° (WSW) 04:10:19
SWISSCUBE 31 Aug 04:04:02 04:07:24 19° 271° (W) 04:10:47 437.505
BEESAT 31 Aug 04:21:32 04:24:19 15° 274° (W) 04:27:07 436.000
ITAMSAT 1 31 Aug 04:25:27 04:30:37 64° 103° (ESE) 04:35:46 435.822/435.867
YUBILEINY 31 Aug 04:28:57 04:33:21 15° 65° (ENE) 04:37:46 435.215
Gurwin Techsat 1B 31 Aug 04:42:16 04:47:15 42° 298° (WNW) 04:52:14 435.225
Oscar 19 31 Aug 04:43:40 04:47:50 25° 306° (NW) 04:51:59 437.125/150
SO-50 31 Aug 04:48:13 04:52:20 28° 11° (N) 04:56:20 436.795
AO-7 31 Aug 04:53:09 05:01:16 52° 101° (ESE) 05:09:18 29.400- 29.500
Cosmos 2491 31 Aug 04:58:16 05:07:04 63° 71° (ENE) 05:15:49 435.465 / 435.565
RS-15 31 Aug 04:59:53 05:11:43 60° 341° (NNW) 05:24:00 29.354- 29.394
STRAND 1 31 Aug 05:04:39 05:06:11 11° 41° (NE) 05:07:43 437.568
JAS-2 31 Aug 05:06:29 05:09:07 13° 325° (NW) 05:11:53 435.910
KKS-1 31 Aug 05:07:32 05:11:29 30° 265° (W) 05:15:29 437.445
AO-85 31 Aug 05:23:16 05:27:56 34° 123° (ESE) 05:32:21 145.980
CUBESAT XI-V 31 Aug 05:30:38 05:35:16 83° 255° (WSW) 05:39:59 437.345
STARS 31 Aug 05:33:37 05:37:35 31° 265° (W) 05:41:33 437.465
MOZHAYETS 4 31 Aug 05:40:59 05:43:36 15° 274° (W) 05:46:12
ITAMSAT 1 31 Aug 06:05:25 06:09:48 28° 304° (WNW) 06:14:10 435.822/435.867
HORYU 2 31 Aug 06:12:45 06:17:00 43° 99° (E) 06:21:13 437.375
Cosmos 2504 31 Aug 06:16:40 06:22:27 22° 76° (ENE) 06:28:00 435.465 / 435.565
LilacSat-2 31 Aug 06:19:31 06:20:29 11° 85° (E) 06:21:28 437.200
YUBILEINY 31 Aug 06:19:36 06:28:05 54° 90° (E) 06:36:34 435.215
BRITE-PL 31 Aug 06:21:56 06:27:09 35° 92° (E) 06:32:15 437.365/2234.400
Gurwin Techsat 1B 31 Aug 06:24:10 06:25:58 12° 319° (NW) 06:27:46 435.225
SO-50 31 Aug 06:29:01 06:33:40 56° 35° (NE) 06:38:11 436.795
STRAND 1 31 Aug 06:39:24 06:44:10 42° 63° (ENE) 06:48:59 437.568
AO-7 31 Aug 06:46:09 06:54:11 55° 305° (NW) 07:02:11 29.400- 29.500
Cosmos 2491 31 Aug 06:55:33 07:03:39 43° 275° (W) 07:11:44 435.465 / 435.565
NOAA 18 31 Aug 07:02:09 07:06:50 28° 93° (E) 07:11:28 137.9125
AO-85 31 Aug 07:03:09 07:08:16 65° 322° (NW) 07:13:00 145.980
DOVE 4 31 Aug 07:06:54 07:10:37 20° 86° (E) 07:14:10 437.250
CUBESAT XI-V 31 Aug 07:10:56 07:13:26 14° 276° (W) 07:15:57 437.345
RS-15 31 Aug 07:14:38 07:26:39 57° 14° (NNE) 07:38:51 29.354- 29.394
GOMX 1 31 Aug 07:17:45 07:23:01 46° 96° (E) 07:28:01 467.674
NOAA 15 31 Aug 07:20:42 07:25:54 51° 100° (E) 07:31:05 137.62
Cubesat XI-IV 31 Aug 07:20:44 07:25:47 42° 97° (E) 07:30:48 437.490
CUTE-I 31 Aug 07:31:21 07:36:33 50° 100° (E) 07:41:43 437.470
HORYU 2 31 Aug 07:49:33 07:53:28 31° 299° (WNW) 07:57:22 437.375
LilacSat-2 31 Aug 07:51:39 07:55:28 84° 101° (E) 07:59:14 437.200
BRITE-PL 31 Aug 08:00:17 08:05:51 55° 293° (WNW) 08:11:20 437.365/2234.400
Cosmos 2504 31 Aug 08:06:36 08:14:48 81° 99° (E) 08:22:27 435.465 / 435.565
SO-50 31 Aug 08:09:45 08:14:02 37° 236° (WSW) 08:18:12 436.795
SEEDS 31 Aug 08:12:15 08:13:59 12° 85° (E) 08:15:43 437.485
YUBILEINY 31 Aug 08:16:34 08:25:06 50° 294° (WNW) 08:33:39 435.215
STRAND 1 31 Aug 08:18:41 08:23:27 39° 263° (W) 08:28:14 437.568
PRISM 31 Aug 08:23:16 08:27:11 45° 66° (ENE) 08:31:10 437.425
AAUSAT CUBESAT 2 31 Aug 08:33:03 08:34:21 11° 84° (E) 08:35:39 437.432
DANDE 31 Aug 08:38:39 08:40:29 12° 50° (NE) 08:42:27 436.750
AO-7 31 Aug 08:39:22 08:45:24 23° 329° (NNW) 08:51:25 29.400- 29.500
CANX-2 31 Aug 08:39:56 08:43:44 31° 95° (E) 08:47:32 2200.000
NOAA 18 31 Aug 08:42:30 08:47:56 64° 293° (WNW) 08:53:19 137.9125
COMPASS 1 31 Aug 08:43:41 08:46:28 17° 88° (E) 08:49:17 437.405
DOVE 4 31 Aug 08:43:49 08:48:58 78° 287° (WNW) 08:53:47 437.250
AO-85 31 Aug 08:45:10 08:49:28 29° 344° (NNW) 08:53:30 145.980
CUTE 1.7 + AOD 2 31 Aug 08:45:17 08:49:05 31° 94° (E) 08:52:53 437.475
UNISAT 6 31 Aug 08:45:28 08:48:02 15° 52° (NE) 08:50:35 437.425
CUSAT 1 31 Aug 08:47:06 08:52:29 30° 60° (ENE) 08:58:49 437.405
HO-68 31 Aug 08:49:01 08:55:44 40° 96° (E) 09:02:24 435.675
CUBEBUG 2 31 Aug 08:51:36 08:54:12 16° 87° (E) 08:56:45 437.445
GOMX 1 31 Aug 08:55:59 09:01:03 39° 298° (WNW) 09:05:53 467.674
Cosmos 2491 31 Aug 08:56:05 08:57:56 11° 300° (WNW) 08:59:47 435.465 / 435.565
CINEMA 3 31 Aug 08:57:44 09:02:11 50° 99° (E) 09:06:25 145.822/145.860
NOAA 15 31 Aug 09:00:46 09:05:34 36° 301° (WNW) 09:10:22 137.62
Cubesat XI-IV 31 Aug 09:00:55 09:05:55 42° 298° (WNW) 09:10:53 437.490
AIST 1 31 Aug 09:09:48 09:13:49 37° 92° (E) 09:17:54
CUTE-I 31 Aug 09:11:41 09:16:30 36° 300° (WNW) 09:21:17 437.470
ANTELSAT 31 Aug 09:20:47 09:24:32 26° 60° (ENE) 09:28:13 437.575/2403.000
LilacSat-2 31 Aug 09:27:06 09:29:16 15° 304° (NW) 09:31:25 437.200
ISS 31 Aug 09:27:33 09:30:19 25° 156° (SSE) 09:33:05 145.825
RS-15 31 Aug 09:28:09 09:40:34 90° 44° (NE) 09:52:56 29.354- 29.394
BRITE-PL 31 Aug 09:40:00 09:43:14 16° 314° (NW) 09:46:27 437.365/2234.400
SEEDS 31 Aug 09:46:10 09:50:25 80° 104° (ESE) 09:54:39 437.485
Oscar 11 31 Aug 09:46:42 09:50:14 24° 92° (E) 09:53:46 145.826/435.025
TIGRISAT 31 Aug 09:49:59 09:54:14 41° 66° (ENE) 09:58:25 435.000
PRISM 31 Aug 09:59:13 10:02:42 26° 266° (W) 10:06:13 437.425
FUNcube-1 31 Aug 09:59:16 10:02:53 28° 94° (E) 10:06:28 145.935
Cosmos 2504 31 Aug 10:02:02 10:09:02 31° 302° (WNW) 10:15:40 435.465 / 435.565
BEESAT 2 31 Aug 10:05:49 10:09:16 29° 122° (ESE) 10:12:45 435.950
AAUSAT CUBESAT 2 31 Aug 10:06:25 10:10:36 75° 102° (ESE) 10:14:47 437.432
QB50P1 31 Aug 10:08:31 10:11:03 16° 53° (NE) 10:13:35 145.935-145.965
JAS-2 31 Aug 10:12:27 10:15:57 17° 42° (NE) 10:19:41 435.910
BEESAT 3 31 Aug 10:15:42 10:19:33 56° 130° (SE) 10:23:27 437.485
CANX-2 31 Aug 10:15:44 10:19:42 39° 294° (WNW) 10:23:39 2200.000
UWE-3 31 Aug 10:16:43 10:20:54 61° 101° (ESE) 10:25:01 435.000/436.395/437.385
COMPASS 1 31 Aug 10:18:21 10:22:32 72° 287° (WNW) 10:26:42 437.405
POPSAT HIP 1 31 Aug 10:18:26 10:21:21 18° 55° (NE) 10:24:15 437.405
YUBILEINY 31 Aug 10:18:56 10:24:37 18° 323° (NW) 10:30:17 435.215
DANDE 31 Aug 10:19:16 10:24:15 47° 70° (ENE) 10:30:44 436.750
UNISAT 6 31 Aug 10:19:34 10:24:07 75° 71° (ENE) 10:28:33 437.425
CUTE 1.7 + AOD 2 31 Aug 10:21:04 10:25:02 39° 294° (WNW) 10:29:00 437.475
DOVE 4 31 Aug 10:22:29 10:25:53 18° 309° (NW) 10:29:10 437.250
ZACube-1 31 Aug 10:22:42 10:26:46 47° 99° (E) 10:30:46 437.345
NOAA 18 31 Aug 10:24:14 10:27:40 17° 315° (NW) 10:31:06 137.9125
CUBEBUG 2 31 Aug 10:27:09 10:31:26 78° 287° (WNW) 10:35:36 437.445
AO-85 31 Aug 10:27:10 10:31:09 26° 9° (N) 10:34:53 145.980
CUSAT 1 31 Aug 10:28:44 10:35:01 81° 258° (WSW) 10:42:41 437.405
AO-7 31 Aug 10:31:17 10:35:21 15° 356° (N) 10:39:25 29.400- 29.500
CINEMA 3 31 Aug 10:35:14 10:39:07 28° 300° (WNW) 10:42:51 145.822/145.860
GOMX 1 31 Aug 10:36:13 10:37:45 11° 319° (NW) 10:39:14 467.674
HUMSAT D 31 Aug 10:36:25 10:39:16 18° 89° (E) 10:42:05 437.325/437.525
HO-68 31 Aug 10:36:46 10:43:48 60° 298° (WNW) 10:50:47 435.675
GONETS M04 31 Aug 10:38:35 10:44:51 22° 72° (ENE) 10:51:08
DUCHIFAT 1 31 Aug 10:40:54 10:44:19 24° 59° (ENE) 10:47:44 145.980
Cubesat XI-IV 31 Aug 10:42:57 10:44:44 12° 320° (NW) 10:46:32 437.490
NOAA 15 31 Aug 10:43:23 10:43:59 10° 322° (NW) 10:44:35 137.62
AIST 1 31 Aug 10:47:31 10:51:29 33° 293° (WNW) 10:55:31
QB50P2 31 Aug 10:48:43 10:52:29 31° 63° (ENE) 10:56:17 145.880/145.840
POLYITAN 1 31 Aug 10:51:12 10:55:00 32° 63° (ENE) 10:58:47 437.675
CUTE-I 31 Aug 10:54:43 10:55:10 10° 322° (NW) 10:55:37 437.470
NANOSAT C BR1 31 Aug 10:56:08 10:59:57 33° 63° (ENE) 11:03:46 145.865
ANTELSAT 31 Aug 10:56:34 11:01:01 54° 259° (W) 11:05:24 437.575/2403.000
Cosmos 2499 31 Aug 11:03:02 11:08:27 21° 76° (ENE) 11:13:38 435.465 / 435.565
ISS 31 Aug 11:03:12 11:06:22 45° 176° (S) 11:09:32 145.825
DELFI C3 31 Aug 11:13:04 11:17:05 69° 103° (ESE) 11:21:06 145.870
Oscar 19 31 Aug 11:13:51 11:15:40 12° 42° (NE) 11:17:30 437.125/150
BUGSAT 1 31 Aug 11:20:00 11:23:34 27° 61° (ENE) 11:27:07 437.445
Oscar 11 31 Aug 11:22:27 11:26:39 52° 292° (WNW) 11:30:51 145.826/435.025
SEEDS 31 Aug 11:22:47 11:25:38 18° 304° (NW) 11:28:29 437.485
TIGRISAT 31 Aug 11:26:57 11:31:02 32° 265° (W) 11:35:03 435.000
PCSat 31 Aug 11:33:45 11:38:25 30° 114° (ESE) 11:43:06 145.827
FUNcube-1 31 Aug 11:35:22 11:39:18 41° 294° (WNW) 11:43:11 145.935
RS-15 31 Aug 11:41:04 11:51:57 39° 251° (WSW) 12:02:43 29.354- 29.394
QB50P1 31 Aug 11:41:56 11:46:13 83° 74° (ENE) 11:50:31 145.935-145.965
AAUSAT CUBESAT 2 31 Aug 11:42:44 11:45:39 19° 303° (WNW) 11:48:33 437.432
BEESAT 2 31 Aug 11:42:59 11:46:54 56° 323° (NW) 11:50:53 435.950
AUBIESAT-1 31 Aug 11:43:47 11:45:14 12° 90° (E) 11:46:38 437.475
M-CUBED/EXP-1 PRIME 31 Aug 11:51:55 11:54:40 17° 94° (E) 11:57:16 437.505
POPSAT HIP 1 31 Aug 11:52:21 11:56:39 82° 257° (WSW) 12:00:57 437.405
BEESAT 3 31 Aug 11:53:45 11:57:25 35° 331° (NNW) 12:01:08 437.485
UWE-3 31 Aug 11:53:50 11:57:02 21° 302° (WNW) 12:00:12 435.000/436.395/437.385
JAS-2 31 Aug 11:54:35 11:59:53 62° 67° (ENE) 12:05:48 435.910
COMPASS 1 31 Aug 11:55:21 11:57:23 13° 308° (NW) 11:59:26 437.405
UNISAT 6 31 Aug 11:58:13 12:01:20 18° 271° (W) 12:04:25 437.425
ZACube-1 31 Aug 11:59:24 12:02:52 26° 299° (WNW) 12:06:18 437.345
DANDE 31 Aug 12:02:05 12:07:03 41° 264° (W) 12:13:23 436.750
Cosmos 2504 31 Aug 12:04:00 12:05:31 11° 331° (NNW) 12:07:02 435.465 / 435.565
CUBEBUG 2 31 Aug 12:05:05 12:07:24 14° 308° (NW) 12:09:40 437.445
AO-85 31 Aug 12:08:04 12:12:32 50° 33° (NNE) 12:16:39 145.980
AISAT 31 Aug 12:10:45 12:13:54 18° 89° (E) 12:17:01 437.250
HUMSAT D 31 Aug 12:11:15 12:15:19 65° 289° (WNW) 12:19:23 437.325/437.525
CUSAT 1 31 Aug 12:11:42 12:16:29 22° 276° (W) 12:21:51 437.405
DUCHIFAT 1 31 Aug 12:15:34 12:19:45 56° 259° (WSW) 12:23:57 145.980
ESTCUBE 1 31 Aug 12:17:57 12:22:06 33° 95° (E) 12:26:13 437.505/2401.250
AO-7 31 Aug 12:19:45 12:25:07 19° 24° (NNE) 12:30:29 29.400- 29.500
QB50P2 31 Aug 12:24:11 12:28:14 40° 262° (W) 12:32:17 145.880/145.840
HO-68 31 Aug 12:25:14 12:30:16 21° 321° (NW) 12:35:19 435.675
POLYITAN 1 31 Aug 12:26:42 12:30:44 40° 262° (W) 12:34:47 437.675
GONETS M04 31 Aug 12:31:29 12:40:14 76° 96° (E) 12:49:05
NANOSAT C BR1 31 Aug 12:31:39 12:35:39 38° 263° (W) 12:39:39 145.865
50 SAT 31 Aug 12:32:12 12:35:11 23° 94° (E) 12:38:10 437.505
ITAMSAT 1 31 Aug 12:37:17 12:38:26 11° 39° (NE) 12:39:35 435.822/435.867
ISS 31 Aug 12:39:28 12:42:31 35° 196° (SSW) 12:45:34 145.825
SPROUT 31 Aug 12:48:33 12:51:53 21° 91° (E) 12:55:11 437.525
DELFI C3 31 Aug 12:48:42 12:51:32 19° 302° (WNW) 12:54:23 145.870
CUBEBUG 1 31 Aug 12:48:49 12:53:04 43° 98° (E) 12:57:17 437.445
Oscar 19 31 Aug 12:48:55 12:53:48 43° 63° (ENE) 12:58:44 437.125/150
AIST 2 31 Aug 12:49:23 12:53:24 52° 129° (SE) 12:57:27 435.215
Gurwin Techsat 1B 31 Aug 12:51:53 12:56:20 28° 56° (NE) 13:00:47 435.225
Cosmos 2499 31 Aug 12:52:41 13:00:33 80° 99° (E) 13:07:53 435.465 / 435.565
BUGSAT 1 31 Aug 12:54:37 12:58:45 49° 260° (W) 13:02:54 437.445
VELOX 1 31 Aug 12:57:01 13:01:18 41° 98° (E) 13:05:31 145.980
Oscar 11 31 Aug 13:00:47 13:01:53 11° 312° (NW) 13:02:58 145.826/435.025
DX 1 31 Aug 13:01:06 13:05:06 32° 96° (E) 13:09:03 434.975-435.025
PCSat 31 Aug 13:16:03 13:21:28 70° 315° (NW) 13:26:56 145.827
AUBIESAT-1 31 Aug 13:16:20 13:20:30 81° 111° (ESE) 13:24:18 437.475
QB50P1 31 Aug 13:20:02 13:22:35 15° 273° (W) 13:25:09 145.935-145.965
BEESAT 2 31 Aug 13:22:12 13:25:28 23° 346° (NNW) 13:28:44 435.950
M-CUBED/EXP-1 PRIME 31 Aug 13:25:32 13:29:46 72° 295° (WNW) 13:33:37 437.505
POPSAT HIP 1 31 Aug 13:31:13 13:33:09 13° 275° (W) 13:35:04 437.405
BEESAT 3 31 Aug 13:33:03 13:36:04 20° 355° (N) 13:39:06 437.485
UKube-1 31 Aug 13:33:54 13:38:09 50° 101° (E) 13:42:22 .
JAS-2 31 Aug 13:40:59 13:45:34 28° 271° (W) 13:50:34 435.910
O/OREOS (USA 219) 31 Aug 13:43:40 13:47:41 33° 109° (ESE) 13:51:46 437.305
AISAT 31 Aug 13:46:24 13:50:54 74° 288° (WNW) 13:55:20 437.250
HUMSAT D 31 Aug 13:48:35 13:50:13 12° 309° (NW) 13:51:50 437.325/437.525
AO-85 31 Aug 13:48:49 13:52:55 38° 236° (SW) 13:56:42 145.980
ESTCUBE 1 31 Aug 13:54:44 13:59:00 41° 295° (WNW) 14:03:16 437.505/2401.250
50 SAT 31 Aug 14:05:28 14:08:55 40° 293° (WNW) 14:12:22 437.505
AO-7 31 Aug 14:08:16 14:15:55 42° 49° (NE) 14:23:33 29.400- 29.500
ITAMSAT 1 31 Aug 14:11:52 14:16:38 39° 61° (ENE) 14:21:25 435.822/435.867
HO-68 31 Aug 14:14:47 14:15:27 10° 347° (NNW) 14:16:07 435.675
ISS 31 Aug 14:16:35 14:18:21 14° 215° (SW) 14:20:06 145.825
SWISSCUBE 31 Aug 14:18:59 14:20:51 12° 83° (E) 14:22:42 437.505
YUBILEINY 31 Aug 14:23:46 14:28:40 16° 32° (NNE) 14:33:33 435.215
SPROUT 31 Aug 14:23:57 14:28:12 58° 291° (WNW) 14:32:23 437.525
CUBEBUG 1 31 Aug 14:25:20 14:29:16 32° 298° (WNW) 14:33:11 437.445
AIST 2 31 Aug 14:28:07 14:32:02 39° 330° (NNW) 14:36:00 435.215
Oscar 19 31 Aug 14:28:23 14:33:13 39° 263° (W) 14:38:06 437.125/150
TISAT 1 31 Aug 14:28:26 14:32:31 44° 99° (E) 14:36:32 437.305
GONETS M04 31 Aug 14:30:00 14:37:58 37° 302° (WNW) 14:46:01
Gurwin Techsat 1B 31 Aug 14:30:38 14:35:56 68° 257° (WSW) 14:41:16 435.225
VELOX 1 31 Aug 14:33:41 14:37:41 33° 298° (WNW) 14:41:40 145.980
BEESAT 31 Aug 14:34:58 14:37:44 15° 86° (E) 14:40:28 436.000
DX 1 31 Aug 14:37:15 14:41:23 40° 296° (WNW) 14:45:29 434.975-435.025
Cosmos 2499 31 Aug 14:47:50 14:54:29 30° 302° (WNW) 15:00:48 435.465 / 435.565
AUBIESAT-1 31 Aug 14:51:32 14:54:27 19° 313° (NW) 14:57:13 437.475
PCSat 31 Aug 15:01:02 15:05:45 29° 339° (NNW) 15:10:29 145.827
M-CUBED/EXP-1 PRIME 31 Aug 15:01:04 15:03:33 15° 317° (NW) 15:05:55 437.505
BEESAT 2 31 Aug 15:01:19 15:04:28 21° 10° (N) 15:07:36 435.950
UKube-1 31 Aug 15:10:20 15:14:00 27° 301° (WNW) 15:17:39 .
BEESAT 3 31 Aug 15:11:31 15:14:52 25° 18° (NNE) 15:18:13 437.485
O/OREOS (USA 219) 31 Aug 15:22:38 15:27:00 46° 310° (NW) 15:31:26 437.305
ITUPSAT 1 31 Aug 15:24:06 15:28:30 35° 96° (E) 15:32:53 437.325
AISAT 31 Aug 15:24:06 15:26:39 15° 309° (NW) 15:29:13 437.250
HORYU 2 31 Aug 15:42:45 15:45:50 19° 54° (NE) 15:48:55 437.375
MOZHAYETS 4 31 Aug 15:50:08 15:52:33 14° 85° (E) 15:54:58
ITAMSAT 1 31 Aug 15:51:10 15:56:06 44° 261° (W) 16:01:04 435.822/435.867
SWISSCUBE 31 Aug 15:54:47 15:59:34 68° 104° (ESE) 16:04:19 437.505
Cosmos 2504 31 Aug 15:58:01 16:01:49 14° 39° (NE) 16:05:33 435.465 / 435.565
HO-68 31 Aug 15:59:03 16:00:06 10° 14° (NNE) 16:01:08 435.675
AO-7 31 Aug 15:59:59 16:08:20 72° 252° (WSW) 16:16:43 29.400- 29.500
SPROUT 31 Aug 16:01:43 16:03:18 12° 311° (NW) 16:04:54 437.525
BRITE-PL 31 Aug 16:03:28 16:06:57 18° 48° (NE) 16:10:32 437.365/2234.400
TISAT 1 31 Aug 16:04:24 16:08:02 28° 299° (WNW) 16:11:37 437.305
AIST 2 31 Aug 16:08:13 16:11:29 22° 354° (N) 16:14:48 435.215
BEESAT 31 Aug 16:11:28 16:16:17 84° 108° (ESE) 16:21:03 436.000
Gurwin Techsat 1B 31 Aug 16:14:21 16:16:55 13° 277° (W) 16:19:30 435.225
Cosmos 2491 31 Aug 16:17:50 16:22:03 15° 65° (ENE) 16:26:16 435.465 / 435.565
YUBILEINY 31 Aug 16:20:21 16:28:37 42° 62° (ENE) 16:36:46 435.215
GONETS M04 31 Aug 16:33:58 16:38:17 14° 332° (NNW) 16:42:39
BEESAT 2 31 Aug 16:39:17 16:43:10 43° 32° (NNE) 16:47:01 435.950
DOVE 4 31 Aug 16:44:51 16:46:42 12° 43° (NE) 16:48:32 437.250
PCSat 31 Aug 16:46:25 16:50:47 24° 5° (N) 16:55:07 145.827
BEESAT 3 31 Aug 16:49:09 16:53:08 72° 41° (NE) 16:57:06 437.485
KKS-1 31 Aug 16:50:37 16:54:40 32° 96° (E) 16:58:40 437.445
GOMX 1 31 Aug 16:55:56 17:00:02 23° 53° (NE) 17:04:13 467.674
NOAA 18 31 Aug 16:56:38 17:00:59 24° 52° (NE) 17:05:19 137.9125
ITUPSAT 1 31 Aug 17:01:57 17:06:26 42° 296° (WNW) 17:10:56 437.325
O/OREOS (USA 219) 31 Aug 17:04:53 17:07:35 15° 333° (NNW) 17:10:16 437.305
LilacSat-2 31 Aug 17:07:35 17:10:06 17° 58° (ENE) 17:12:38 437.200
NOAA 15 31 Aug 17:09:12 17:13:52 33° 58° (ENE) 17:18:35 137.62
Cubesat XI-IV 31 Aug 17:11:09 17:15:40 29° 56° (ENE) 17:20:12 437.490
STARS 31 Aug 17:15:18 17:19:11 29° 95° (E) 17:23:02 437.465
HORYU 2 31 Aug 17:17:25 17:21:53 85° 252° (WSW) 17:26:22 437.375
CUBESAT XI-V 31 Aug 17:20:48 17:23:47 16° 86° (E) 17:26:44 437.345
CUTE-I 31 Aug 17:21:23 17:26:07 33° 59° (ENE) 17:30:51 437.470
MOZHAYETS 4 31 Aug 17:25:52 17:30:29 83° 105° (ESE) 17:35:05
SWISSCUBE 31 Aug 17:33:12 17:37:00 24° 304° (NW) 17:40:48 437.505
BRITE-PL 31 Aug 17:39:20 17:44:28 69° 70° (ENE) 17:50:00 437.365/2234.400
HO-68 31 Aug 17:40:09 17:45:19 22° 40° (NE) 17:50:29 435.675
AIST 2 31 Aug 17:47:35 17:51:09 26° 18° (NNE) 17:54:43 435.215
BEESAT 31 Aug 17:50:04 17:53:33 20° 307° (NW) 17:57:01 436.000
Cosmos 2504 31 Aug 17:50:31 17:57:33 46° 67° (ENE) 18:04:23 435.465 / 435.565
AO-7 31 Aug 17:56:47 18:02:41 21° 275° (W) 18:08:35 29.400- 29.500
CANX-2 31 Aug 18:07:25 18:08:24 11° 49° (NE) 18:09:23 2200.000
Cosmos 2491 31 Aug 18:08:24 18:16:45 54° 89° (E) 18:25:12 435.465 / 435.565
CUTE 1.7 + AOD 2 31 Aug 18:12:42 18:13:39 11° 49° (NE) 18:14:35 437.475
BEESAT 2 31 Aug 18:17:13 18:21:01 42° 234° (SW) 18:24:49 435.950
YUBILEINY 31 Aug 18:17:20 18:26:00 65° 267° (W) 18:34:34 435.215
DOVE 4 31 Aug 18:18:11 18:23:10 43° 64° (ENE) 18:28:10 437.250
KKS-1 31 Aug 18:27:08 18:31:21 41° 296° (WNW) 18:35:32 437.445
BEESAT 3 31 Aug 18:27:22 18:30:27 22° 241° (WSW) 18:33:32 437.485
CINEMA 3 31 Aug 18:30:07 18:33:49 22° 56° (NE) 18:37:27 145.822/145.860
PCSat 31 Aug 18:30:29 18:35:35 38° 30° (NNE) 18:40:40 145.827
GOMX 1 31 Aug 18:32:08 18:37:28 90° 253° (WSW) 18:43:01 467.674
NOAA 18 31 Aug 18:35:33 18:41:06 85° 252° (WSW) 18:46:40 137.9125
GONETS M04 31 Aug 18:39:51 18:40:38 10° 8° (N) 18:41:24
LilacSat-2 31 Aug 18:40:10 18:44:00 71° 258° (WSW) 18:47:50 437.200
ITUPSAT 1 31 Aug 18:42:20 18:43:10 10° 317° (NW) 18:43:59 437.325
NOAA 15 31 Aug 18:48:19 18:53:29 54° 259° (W) 18:58:42 137.62
Cubesat XI-IV 31 Aug 18:50:08 18:55:26 65° 256° (WSW) 19:00:46 437.490
STARS 31 Aug 18:51:31 18:55:43 44° 295° (WNW) 18:59:53 437.465
HORYU 2 31 Aug 18:56:49 18:59:09 14° 274° (W) 19:01:30 437.375
CUBESAT XI-V 31 Aug 18:57:05 19:01:50 88° 290° (WNW) 19:06:34 437.345
CUTE-I 31 Aug 19:00:47 19:06:00 54° 259° (W) 19:11:15 437.470
MOZHAYETS 4 31 Aug 19:03:53 19:07:08 20° 305° (NW) 19:10:24
AIST 1 31 Aug 19:09:14 19:12:49 23° 63° (ENE) 19:16:21
SEEDS 31 Aug 19:10:09 19:13:22 22° 59° (ENE) 19:16:36 437.485
